Theta_e
320 323 328 330 337 334 332 331 326 330 344 343 342 343 344 341 345 348 345 343 343 341 342 341 341 340 340 339 337 340 340 338 335 331 327 327 327 332 338 335 336 334 331 327 332 327 327 326 325
322 326 330 326 335 336 332 327 332 332 340 338 342 341 340 340 338 342 344 345 344 341 340 341 339 339 339 337 338 340 340 340 340 338 334 327 327 328 328 333 336 337 336 333 330 327 326 326 326
324 325 325 328 328 332 330 325 332 339 339 336 341 336 335 329 335 338 341 344 344 342 340 340 340 340 338 338 339 340 340 340 339 339 337 338 335 333 329 329 329 330 334 337 335 333 328 326 326
325 327 322 327 326 324 324 323 322 333 338 339 335 333 328 326 331 333 338 342 343 341 340 339 339 339 339 339 340 339 339 337 336 338 338 338 338 337 336 332 331 331 331 333 336 335 335 330 326
326 323 326 326 325 323 322 321 327 333 330 326 330 331 330 321 325 328 331 335 337 336 335 336 337 336 337 337 337 337 338 337 337 337 337 337 338 338 338 337 335 332 334 334 333 334 336 334 334
326 321 327 327 325 323 322 320 326 326 321 322 327 331 322 320 322 322 326 330 328 330 330 331 331 329 329 330 334 331 333 336 336 335 335 336 336 337 337 337 337 338 336 333 336 337 337 336 336
324 324 323 323 325 325 322 321 320 320 321 321 325 328 320 320 317 318 321 321 319 315 316 317 315 314 312 317 316 317 316 320 323 326 329 332 333 333 334 334 333 333 335 337 338 335 335 336 337
324 324 324 324 324 325 321 321 320 320 320 319 320 328 322 313 313 312 312 312 311 310 308 308 308 305 307 307 304 303 307 306 309 311 314 317 321 324 326 329 330 331 331 332 333 334 337 335 334
323 326 326 325 325 323 319 321 321 320 318 314 315 315 312 312 312 311 310 309 309 307 306 305 305 305 304 304 303 302 302 302 302 304 304 304 307 310 311 314 316 320 322 324 327 329 330 333 335
321 326 325 319 319 320 318 318 318 321 318 314 311 311 311 310 309 307 306 306 306 305 305 305 304 304 303 302 302 302 301 301 301 301 301 301 301 302 302 303 303 305 307 310 314 317 322 326 328
320 325 319 311 316 315 314 313 312 315 312 309 309 308 308 308 306 306 305 305 304 303 302 301 301 300 300 301 301 301 301 301 301 301 301 301 301 301 301 301 302 302 302 302 303 304 307 313 318
320 317 319 313 316 316 315 312 310 310 308 307 307 307 306 306 305 304 303 301 301 300 300 300 300 300 300 300 300 300 301 301 301 301 301 301 300 300 300 301 301 301 301 301 302 302 303 304 306
319 315 310 310 311 311 311 311 309 308 306 306 305 304 302 301 300 300 300 300 300 300 300 300 300 300 300 299 299 299 301 303 302 302 302 301 300 300 300 299 299 300 300 300 300 301 301 302 302
311 310 308 308 306 307 307 306 308 305 301 300 300 299 299 299 299 300 300 299 300 300 300 300 300 300 300 299 299 299 300 303 303 303 303 302 301 301 300 300 299 299 299 299 299 299 300 300 301
314 316 310 306 306 306 306 305 304 301 298 298 297 297 297 297 298 297 297 298 299 299 299 300 300 300 300 299 299 298 303 304 304 303 302 303 303 301 301 301 300 300 299 298 297 298 298 299 300
308 307 310 306 307 306 307 303 298 297 297 296 295 295 295 295 295 295 295 296 298 299 299 299 299 299 299 299 299 299 298 302 303 301 299 299 303 302 301 301 301 301 301 300 299 298 297 297 298
305 308 308 308 305 305 306 301 297 296 296 295 295 294 294 295 295 295 294 294 294 295 296 297 297 298 298 298 299 299 299 298 298 298 298 297 301 303 302 300 300 299 300 300 300 298 298 298 297
306 306 306 307 306 302 300 298 297 296 295 295 294 294 294 294 294 294 294 294 294 294 294 294 295 296 297 298 298 299 299 299 299 298 298 297 296 296 298 298 298 298 299 299 299 299 298 299 298
305 305 307 306 305 302 300 298 297 296 296 295 295 294 294 294 294 294 294 294 294 294 294 295 296 296 296 297 297 297 298 298 298 297 297 297 297 296 297 297 298 299 298 298 298 299 299 298 299
305 307 305 305 304 305 299 298 297 296 295 295 294 294 294 294 294 294 294 294 294 294 295 295 295 296 296 295 296 296 296 297 297 297 297 297 297 296 297 297 297 296 297 297 296 296 296 296 297
304 305 304 303 303 302 299 298 297 297 296 294 294 293 294 294 294 295 296 295 295 295 295 295 295 295 295 294 294 295 296 296 297 297 297 297 296 296 297 297 297 296 296 296 296 296 296 297 300
304 304 303 302 303 304 302 307 299 297 296 295 294 294 294 294 295 295 295 295 294 293 293 293 293 293 293 293 293 294 294 295 296 296 296 296 296 297 297 297 297 297 297 295 294 296 297 299 301
304 303 301 303 303 303 302 303 297 296 295 295 294 294 294 294 295 295 295 295 293 293 293 293 293 293 293 293 294 294 294 294 294 294 294 296 296 295 296 296 296 297 296 294 295 296 298 298 299
302 301 302 301 303 305 300 300 297 294 294 294 294 294 294 294 295 295 295 294 294 293 293 293 294 294 294 294 294 294 294 294 294 294 294 294 294 294 294 295 295 295 296 295 295 296 297 297 297
300 300 305 306 305 304 299 299 297 294 293 293 294 294 294 294 295 295 294 294 294 294 294 294 294 294 294 294 294 294 294 294 294 294 295 295 295 295 295 295 295 295 296 296 295 295 296 296 298
300 299 302 304 302 300 299 301 300 294 293 294 293 294 294 294 295 294 294 294 294 294 294 294 294 294 294 294 294 294 294 294 294 294 294 294 294 294 295 295 295 295 296 296 296 296 295 296 297
298 298 298 299 296 297 297 296 297 293 294 293 294 294 294 294 294 294 294 293 293 293 293 293 293 294 294 294 294 294 294 294 294 294 294 294 294 294 294 295 295 295 295 296 296 296 295 295 296
297 296 296 296 297 297 296 296 296 293 294 294 294 294 294 294 294 293 293 293 293 293 293 293 294 294 294 294 294 295 295 294 295 294 294 294 294 294 294 294 295 295 295 295 296 296 296 296 296
296 295 294 294 296 297 296 295 293 293 293 294 294 294 294 294 293 293 293 293 293 293 293 294 294 294 295 295 295 295 296 296 296 296 296 296 295 295 295 295 295 295 295 295 296 295 296 296 297
293 294 293 294 294 292 292 294 292 294 293 293 294 294 294 293 293 292 292 292 293 293 294 294 294 295 295 295 296 296 296 297 297 297 297 297 297 297 296 297 296 297 297 296 296 296 296 297 298
Wind_Speed
4 4 2 2 3 4 2 1 1 2 3 7 10 14 13 12 5 5 9 7 7 7 6 3 2 2 3 4 5 3 4 4 5 5 4 3 4 5 5 4 5 4 4 6 6 5 4 4 4
5 3 2 3 4 3 1 3 3 1 4 3 7 5 9 6 12 4 2 8 5 2 4 3 1 0 2 3 4 4 5 5 5 5 5 4 4 6 7 7 7 8 7 6 7 9 7 7 7
4 5 3 4 3 3 2 2 3 3 1 2 4 11 5 9 8 4 6 6 4 2 2 2 3 3 2 1 3 5 4 4 5 6 6 6 5 6 6 8 10 10 10 10 9 9 10 9 10
5 3 6 5 6 1 1 2 4 2 4 7 8 10 9 14 2 5 7 6 4 0 2 5 2 0 1 1 2 4 6 6 7 7 7 8 8 8 9 9 10 11 12 12 13 12 11 11 12
4 4 4 4 4 2 3 4 3 2 3 8 2 5 7 10 10 10 10 10 7 9 13 13 12 12 11 11 11 10 10 11 9 5 8 9 9 10 10 10 12 13 13 14 15 15 15 14 14
3 3 4 3 2 2 2 9 5 7 9 7 7 6 6 4 9 13 12 13 14 11 12 12 12 13 11 12 12 11 11 8 11 10 10 10 11 11 11 12 13 10 14 15 15 17 17 17 18
5 4 3 2 3 4 6 9 6 4 8 9 4 5 5 7 11 10 13 14 14 17 16 14 15 15 15 13 13 12 12 12 11 9 8 9 12 12 13 13 16 17 15 12 14 17 18 19 20
5 5 4 5 3 3 10 4 2 10 5 3 6 5 5 8 10 14 16 16 17 18 17 17 16 16 14 14 15 15 14 12 12 10 10 10 10 12 13 13 16 17 20 19 19 18 19 20 21
3 4 4 3 4 4 10 6 8 9 11 16 12 13 10 7 9 10 14 16 18 19 20 20 19 20 20 18 19 18 16 14 13 12 12 10 10 9 10 12 13 14 15 17 19 19 18 18 19
7 4 5 5 2 2 5 11 6 5 14 15 19 18 15 13 15 19 22 22 22 22 22 22 21 22 22 23 23 22 21 19 17 16 15 15 15 14 13 13 14 15 16 17 17 18 19 21 22
6 4 7 13 8 10 9 25 16 5 14 16 13 17 16 16 18 19 20 21 21 22 21 23 24 25 25 25 24 24 23 21 21 20 20 19 19 19 18 18 18 19 20 21 21 21 20 21 20
7 13 7 12 23 11 7 11 24 26 9 14 17 17 17 19 20 20 20 20 21 22 24 24 25 24 24 26 26 24 25 24 23 23 23 23 23 22 22 23 24 24 23 24 24 24 24 24 23
8 7 17 11 22 25 32 24 18 23 19 21 22 24 24 22 21 20 21 20 22 25 27 28 28 27 26 26 26 25 23 23 24 24 24 23 22 22 22 22 23 25 26 26 26 27 27 28 28
11 18 10 18 17 15 24 17 7 16 17 24 25 27 27 30 30 25 26 26 25 25 25 25 26 28 28 28 26 25 22 20 21 20 21 21 21 21 22 23 24 24 24 26 28 29 29 29 31
3 3 5 21 16 5 6 20 12 12 21 29 29 29 33 34 33 34 34 31 30 27 26 26 27 27 26 25 25 22 21 20 20 21 20 19 21 22 21 22 22 23 23 23 24 27 29 30 30
5 4 3 6 14 10 5 5 17 16 24 26 27 28 31 34 35 37 35 34 32 31 29 28 27 26 25 23 23 24 22 24 23 21 21 22 20 19 22 22 21 22 24 24 24 25 25 27 29
7 1 2 1 12 1 8 9 10 15 23 25 27 29 31 35 42 42 40 37 34 33 35 36 35 32 29 27 25 24 22 22 22 23 23 23 20 22 25 25 25 24 26 27 28 29 29 29 28
4 3 3 3 5 11 17 15 11 14 23 22 25 29 31 33 34 36 36 37 36 34 33 36 37 35 33 32 28 26 28 27 25 24 26 25 23 25 26 28 29 28 28 27 28 29 29 30 30
3 2 3 1 4 6 11 11 9 13 24 26 30 32 33 33 34 33 34 34 34 33 32 31 31 34 33 32 32 28 24 24 26 28 28 27 26 23 23 23 24 23 25 26 27 27 29 31 31
1 1 3 3 3 4 10 10 8 14 17 20 28 31 31 35 37 37 36 35 36 36 37 33 32 33 32 32 31 31 29 28 28 30 31 31 29 26 26 27 26 25 26 28 31 31 31 33 32
3 2 5 9 3 4 13 5 1 6 15 26 26 26 31 33 37 45 49 47 45 42 39 37 36 37 37 34 33 31 32 35 36 36 34 32 28 28 28 29 30 32 31 35 35 33 30 31 27
5 2 10 10 3 1 3 2 4 9 13 25 31 36 39 45 46 42 43 45 44 46 45 43 42 40 38 36 36 36 36 36 36 35 35 31 28 27 28 30 32 36 37 37 35 32 29 27 30
6 17 6 1 3 3 3 3 5 5 18 22 31 35 36 37 37 38 39 43 49 47 47 47 46 44 43 42 39 38 38 37 38 39 39 37 38 37 37 37 37 36 37 34 31 30 30 27 28
17 5 2 1 1 2 4 4 4 8 16 20 28 35 39 43 46 50 53 51 49 50 50 49 51 50 48 43 44 43 42 41 40 39 38 38 37 37 33 30 31 33 33 33 31 30 30 29 29
11 7 4 4 4 4 4 3 2 8 16 19 25 37 41 40 41 44 47 52 55 54 52 51 49 50 48 48 48 45 44 44 45 43 41 40 39 39 38 33 32 33 33 32 31 32 32 31 29
5 5 3 5 6 8 8 2 2 8 24 39 38 39 42 43 45 46 48 49 52 54 54 54 51 51 50 48 48 46 44 44 43 42 42 44 42 41 39 36 35 34 34 33 33 33 32 32 32
5 7 2 4 2 3 5 2 4 17 33 38 42 46 49 50 51 51 53 52 52 53 54 53 52 52 51 49 47 46 45 41 43 40 42 42 42 43 40 38 36 34 30 29 31 33 33 33 33
8 3 2 5 7 7 3 5 6 19 25 29 40 47 50 51 52 55 55 55 56 54 53 52 50 50 50 47 48 46 44 42 41 41 40 40 39 38 38 38 37 36 33 31 32 31 32 33 33
5 4 5 3 1 3 5 6 2 16 21 21 39 46 47 50 53 54 56 56 56 54 53 52 52 51 54 51 49 47 44 42 40 40 38 36 37 35 38 36 35 33 31 33 31 31 30 31 31
4 3 2 3 3 1 0 6 3 28 30 31 42 45 49 51 54 56 56 55 56 55 56 54 55 54 54 53 50 47 43 39 37 34 32 30 28 29 26 27 32 28 27 27 29 31 28 28 29
Wind_Direction
8 10 16 81 73 69 62 15 318 26 74 51 70 83 88 56 27 80 48 41 16 81 97 82 64 29 348 341 349 340 339 349 358 353 345 317 287 281 280 285 283 295 280 271 274 266 258 258 254
8 14 53 96 83 80 341 317 31 333 142 71 64 64 46 67 32 16 83 50 351 102 134 127 104 40 339 327 331 320 308 311 313 326 328 314 291 279 278 282 286 281 281 280 280 281 266 263 259
10 29 50 80 88 108 160 1 15 61 193 343 102 64 48 346 3 14 70 98 258 252 172 162 166 162 166 43 353 342 320 314 299 294 306 299 296 297 285 280 281 279 280 274 279 278 280 271 267
10 39 60 68 86 50 300 337 340 26 46 53 103 76 79 6 19 42 91 108 245 207 93 77 149 234 327 3 9 349 342 320 317 317 320 306 302 293 282 278 272 271 272 274 271 273 271 274 268
24 58 61 78 65 71 23 351 1 62 47 27 37 104 72 25 61 80 78 78 55 48 44 38 32 29 16 10 354 342 332 322 307 324 336 330 322 321 306 301 287 277 273 274 273 272 271 272 271
66 67 69 85 70 17 21 8 41 55 34 21 61 72 66 38 62 60 56 52 48 40 41 27 19 19 10 3 342 351 340 333 326 331 327 327 320 318 315 313 302 303 288 282 278 272 270 269 265
93 70 96 88 19 37 357 7 39 33 34 23 35 75 98 67 67 60 53 51 50 51 45 39 34 24 27 13 9 359 4 354 342 329 308 295 297 299 295 299 306 310 303 286 280 276 275 273 267
63 87 54 29 13 59 352 54 11 46 63 42 40 72 82 76 80 69 65 58 55 53 51 48 39 34 26 20 13 10 358 359 353 350 342 334 316 301 296 289 284 288 292 297 297 280 273 269 266
61 65 65 28 24 333 1 36 37 52 69 50 57 76 96 89 74 64 53 47 41 39 37 34 28 22 17 13 9 4 0 354 346 343 341 335 326 319 312 310 308 304 296 293 289 289 292 286 278
64 80 61 354 15 323 45 46 23 48 57 55 58 71 76 72 55 47 42 39 35 30 24 20 15 10 4 1 358 356 354 351 347 342 335 331 330 327 322 317 311 308 305 302 299 297 294 288 287
40 94 145 42 15 31 42 57 36 32 45 36 73 68 65 59 53 47 41 34 26 18 10 6 1 357 354 353 352 348 347 343 340 336 333 330 324 318 315 314 310 309 307 305 300 297 297 294 294
101 58 88 57 63 55 48 90 64 65 83 80 78 71 64 55 49 41 32 23 15 10 6 2 357 352 347 343 341 339 337 335 333 331 329 327 324 321 317 313 312 312 309 305 302 298 293 292 291
75 104 72 101 88 88 77 73 78 55 70 73 69 65 57 45 34 28 23 18 12 7 3 358 356 353 349 343 337 330 324 327 329 328 329 329 327 323 319 317 313 310 310 307 301 296 295 291 287
120 103 91 48 64 73 77 41 84 36 59 65 57 46 42 36 29 22 16 7 0 354 352 349 345 343 340 336 330 321 309 308 315 325 328 327 325 322 319 315 315 313 309 306 305 303 296 291 288
123 84 63 22 7 61 146 38 40 32 57 54 44 39 34 28 23 16 8 3 358 353 343 334 330 328 328 332 332 327 308 298 304 311 311 307 313 315 313 313 314 313 312 309 307 301 296 292 288
46 60 34 18 8 9 133 65 34 46 60 46 37 30 25 22 16 9 359 350 342 334 329 326 322 318 315 311 315 319 317 299 300 303 306 303 294 305 306 304 305 309 312 313 313 312 308 300 297
15 321 12 51 29 178 64 126 65 54 54 45 32 23 17 8 4 1 357 351 343 330 326 324 322 319 315 307 295 297 300 303 298 301 306 310 292 293 295 295 296 302 300 302 304 309 312 313 307
318 336 311 288 23 72 96 114 90 62 53 41 25 14 7 358 353 349 347 347 344 334 326 322 325 329 322 320 311 291 290 285 290 292 300 307 304 288 288 288 288 291 289 291 296 301 304 304 308
259 240 297 19 33 74 99 109 74 54 40 27 17 8 359 354 347 342 340 339 338 342 341 335 333 333 331 322 326 324 308 292 285 287 292 298 304 297 287 281 281 282 284 287 290 290 293 296 299
264 241 352 311 47 71 127 107 85 52 39 23 11 1 352 349 346 346 343 341 341 340 342 338 333 330 330 325 321 317 313 302 295 287 289 292 292 291 277 278 282 281 283 284 285 286 288 286 285
8 52 343 300 327 56 129 166 338 2 15 13 7 357 355 349 346 349 350 349 347 345 342 338 333 329 326 325 319 310 301 297 295 293 293 290 283 281 278 279 284 287 290 290 287 287 285 284 279
330 314 315 294 221 214 188 297 37 354 359 1 359 356 351 351 346 343 343 341 339 340 339 335 332 328 325 323 320 316 311 303 297 296 291 287 281 274 271 272 279 282 286 286 280 280 275 277 275
273 314 301 264 187 136 165 280 11 340 358 352 353 349 343 339 337 334 335 335 339 341 338 335 331 328 327 322 320 316 310 304 301 296 293 287 286 283 276 275 278 277 282 280 271 269 266 266 269
310 332 83 77 159 163 123 3 57 21 346 339 345 348 343 340 338 339 341 337 334 333 332 333 331 324 323 316 313 310 310 309 306 300 299 295 290 289 283 275 274 274 274 275 268 265 261 262 264
15 352 337 330 345 357 14 347 117 17 353 339 337 344 342 337 333 330 330 330 329 328 325 321 318 314 314 313 310 306 303 302 301 302 300 297 296 293 290 282 277 276 268 268 265 263 261 260 256
21 29 49 313 312 318 345 322 73 20 344 354 344 338 337 337 335 330 327 326 324 323 322 323 320 316 315 312 307 305 302 297 294 290 291 293 291 292 289 287 283 279 270 263 262 262 260 256 254
354 35 350 280 8 302 324 9 118 348 358 346 340 339 338 335 333 329 329 328 325 325 324 323 320 317 315 312 309 305 302 295 293 287 287 283 284 287 285 286 283 280 272 263 264 262 259 255 255
72 339 5 23 346 315 357 294 332 354 350 340 339 333 331 330 331 330 329 328 326 327 325 323 320 316 313 312 311 307 302 297 295 292 286 282 280 275 278 277 276 275 270 259 262 262 256 254 252
7 33 41 117 53 290 314 322 163 344 345 329 329 328 328 328 328 328 327 328 329 329 327 323 322 320 320 319 322 317 315 312 307 297 295 289 284 275 274 272 268 268 265 261 258 257 256 254 251
71 85 71 96 306 65 207 276 268 341 330 329 326 327 328 330 328 328 329 330 332 331 329 326 327 325 325 327 325 324 323 322 316 310 304 302 294 291 283 279 271 273 272 261 254 252 250 250 250